Theta_e
314 315 315 315 316 317 316 316 316 317 316 315 316 316 316 317 316 313 310 311 313 315 318 321 323 321 318 318 317 317 327 325 322 321 307 303 302 301 299 299 298 298 297 295 294
314 314 315 316 317 317 317 317 316 314 314 315 315 315 315 315 316 312 311 313 314 315 320 320 321 317 318 317 316 320 321 315 307 308 306 303 302 301 299 298 297 297 296 294 294
314 314 315 317 317 316 317 317 315 314 314 314 314 315 314 317 313 312 312 313 314 317 321 320 317 317 316 314 311 310 314 306 305 305 303 302 300 300 299 297 295 295 294 294 294
315 315 315 316 317 317 317 316 314 313 313 313 313 315 315 316 314 311 312 313 316 319 321 319 316 316 314 313 308 310 307 306 304 303 302 301 299 296 296 295 294 294 293 293 294
315 315 316 316 316 316 317 315 314 313 313 313 312 315 314 308 309 311 313 315 318 318 315 317 316 314 314 310 309 308 305 302 301 300 299 299 297 295 295 294 293 293 293 293 293
314 314 315 316 316 316 314 314 314 314 314 314 312 311 311 310 310 312 312 313 317 316 312 313 313 310 307 305 306 303 302 301 300 299 299 299 297 297 294 293 293 293 293 292 292
314 314 314 315 315 314 314 314 314 313 314 314 314 312 308 309 310 312 311 311 313 315 310 311 312 311 307 305 303 303 302 302 301 300 299 300 296 294 293 292 293 293 292 292 292
314 314 314 314 314 314 315 314 313 314 314 313 312 311 310 310 310 312 311 310 310 310 311 311 311 309 307 305 308 307 306 309 303 301 300 301 296 293 293 293 293 292 292 292 291
314 314 314 314 314 314 316 315 312 313 312 313 311 309 309 310 310 309 310 311 311 309 308 308 305 306 304 309 309 306 310 309 304 302 301 301 295 293 293 292 293 292 292 292 292
313 314 314 314 314 314 316 313 312 312 312 311 311 309 309 308 308 308 309 309 308 308 307 305 304 305 303 305 312 307 307 307 307 301 298 296 294 293 292 292 292 292 292 292 292
312 314 315 314 313 315 316 318 309 309 309 308 308 308 308 308 308 306 306 307 307 304 307 302 305 304 302 302 302 303 304 304 302 300 299 295 293 293 293 293 292 292 292 292 291
311 313 315 314 314 316 316 311 309 309 310 308 307 308 308 307 308 306 306 305 305 306 304 305 303 301 301 301 304 303 302 304 302 300 296 294 294 293 292 293 291 291 291 291 292
311 313 315 315 316 315 315 315 312 311 310 312 308 308 308 306 304 304 305 303 302 303 302 304 302 301 303 300 301 302 303 300 300 300 297 295 298 294 293 291 292 291 290 291 291
311 312 315 315 316 315 316 316 316 313 308 311 310 309 308 306 306 303 302 305 305 303 301 302 300 301 301 300 300 303 299 298 301 302 303 299 306 294 291 292 292 291 291 291 292
311 312 314 316 316 313 316 316 317 314 315 311 310 310 306 308 306 306 302 303 303 302 304 303 301 300 300 299 299 300 297 300 301 302 302 301 303 294 290 292 291 291 291 291 292
311 312 313 315 316 316 316 316 316 316 318 312 310 310 310 306 304 303 302 301 301 303 301 301 299 299 299 298 298 296 301 301 300 302 305 299 301 295 293 291 291 291 291 291 291
311 312 314 315 314 316 316 314 317 321 313 312 311 309 308 307 305 303 301 300 303 309 305 304 301 299 297 298 297 296 298 303 303 302 303 296 297 295 292 291 291 291 291 291 291
311 312 314 315 316 315 314 313 322 314 311 310 309 309 310 307 305 302 302 302 300 300 302 306 309 299 297 296 295 295 296 301 302 300 299 296 299 296 292 290 290 290 291 290 291
311 313 313 313 313 315 309 313 315 313 311 310 310 312 311 309 307 304 301 302 301 299 305 304 304 299 296 294 294 295 296 294 296 296 297 296 294 292 292 291 291 291 290 290 290
312 313 312 312 313 315 310 313 315 311 310 309 313 311 312 310 309 307 305 301 301 301 299 299 305 299 298 296 294 295 293 296 296 300 300 294 293 295 292 291 291 291 291 290 290
312 310 310 311 313 310 312 311 312 308 308 310 310 311 309 308 306 306 305 302 301 302 298 298 302 301 299 296 296 295 294 293 294 293 298 295 296 291 291 291 290 290 290 290 290
309 313 310 311 310 302 310 310 308 307 305 308 308 309 308 306 306 305 305 303 300 301 301 298 299 302 298 295 293 293 293 291 301 296 291 293 296 292 290 290 289 290 290 289 290
308 307 309 310 312 306 305 306 306 306 306 307 308 308 307 307 308 303 301 300 300 298 300 299 300 305 303 298 296 296 293 291 291 290 293 298 298 290 289 289 290 290 289 289 290
305 311 306 302 301 305 305 306 306 303 304 304 305 306 307 307 303 303 301 301 298 298 304 298 297 304 309 305 298 297 294 292 292 295 293 294 294 292 291 290 291 290 289 289 290
306 309 306 311 308 305 306 304 304 305 303 303 305 307 308 307 306 303 300 299 298 303 296 297 301 297 297 296 296 296 296 293 292 292 297 293 292 292 291 290 291 289 288 289 290
309 309 301 298 302 304 305 303 304 302 303 305 307 304 306 307 307 305 300 298 298 296 297 294 300 297 298 295 295 296 295 294 293 292 290 290 292 289 290 290 290 289 288 289 290
307 306 306 302 302 305 305 303 303 301 300 298 302 302 304 302 299 296 293 293 295 295 295 296 297 298 302 296 295 300 297 294 294 292 293 293 292 290 291 291 290 289 288 288 289
Wind_Speed
7 5 4 3 4 5 6 5 4 4 4 4 4 6 8 8 3 14 8 16 17 16 9 4 6 7 9 5 7 2 4 3 2 5 7 7 5 4 5 12 9 5 6 7 14
7 5 3 3 5 5 4 3 4 4 4 5 6 7 8 6 2 7 21 20 13 12 3 2 2 6 5 5 5 6 4 2 3 5 9 7 8 6 5 8 7 9 14 18 20
7 6 3 4 4 3 3 3 4 5 5 6 8 7 8 0 3 5 24 18 12 8 2 4 8 5 6 5 8 5 4 5 8 14 11 10 10 3 7 10 7 9 12 17 19
7 6 4 4 4 2 1 3 4 4 4 7 9 3 4 1 1 10 21 17 11 3 4 5 5 5 6 7 4 8 7 5 8 7 7 7 8 11 14 5 6 8 10 15 22
7 6 4 4 3 1 3 4 4 3 4 7 6 3 1 6 3 20 14 15 8 6 8 3 5 5 6 6 7 13 6 9 13 15 12 16 13 13 12 8 9 11 17 19 20
6 5 4 2 2 3 4 5 4 4 5 5 6 2 3 5 9 12 12 17 17 23 18 10 5 11 9 6 6 8 18 13 9 11 8 11 6 5 8 7 11 16 15 18 20
6 5 4 2 2 4 7 6 6 6 4 4 1 5 9 1 8 8 16 19 23 19 8 8 8 7 7 10 9 12 12 10 5 3 7 14 12 8 5 7 15 15 15 17 21
5 5 4 3 2 5 8 7 8 3 2 2 3 3 3 4 7 10 10 22 19 18 23 20 25 12 6 10 4 4 5 4 3 6 4 4 6 5 6 9 13 14 15 15 22
5 6 5 4 3 7 8 7 4 2 5 1 2 5 2 2 7 15 10 3 7 15 16 12 11 6 3 3 3 1 1 2 3 2 3 1 8 3 4 10 14 15 15 15 18
6 6 5 5 5 8 6 7 8 2 3 2 7 5 6 4 7 12 5 9 8 2 5 9 6 5 4 5 1 2 1 3 3 2 8 13 11 5 3 12 12 14 16 17 19
7 6 5 5 5 9 4 2 5 6 12 4 1 3 2 6 5 15 9 2 6 9 5 6 10 5 4 2 3 2 2 3 2 3 5 8 9 4 5 14 17 17 18 19 19
7 6 5 5 6 7 3 5 4 5 5 3 2 2 2 2 5 20 15 6 7 4 2 5 4 3 3 5 2 2 3 2 3 6 6 8 5 3 3 8 9 15 18 18 20
7 6 5 4 5 3 6 6 7 5 5 2 2 3 2 6 5 10 8 3 7 9 8 7 3 4 2 6 5 2 1 2 3 5 6 8 2 1 3 4 9 16 13 16 19
6 5 4 3 1 3 3 4 3 2 4 4 2 4 4 3 5 4 8 3 6 4 3 6 4 3 3 4 3 1 1 2 6 5 1 1 3 1 6 10 14 17 17 18 19
6 4 4 1 3 3 5 2 3 1 1 0 2 1 3 6 1 10 10 8 5 2 2 1 4 5 5 2 1 2 1 2 4 4 4 3 2 1 5 10 19 18 18 18 19
5 4 4 2 2 4 5 1 1 5 5 2 1 2 4 7 4 5 7 9 3 5 7 2 1 3 2 3 1 4 3 5 3 2 1 1 1 2 3 10 13 16 17 19 19
5 4 3 3 3 5 4 3 4 3 2 2 1 3 4 5 5 6 5 7 3 2 4 3 3 3 3 2 2 9 3 2 0 1 2 2 2 0 3 6 9 14 16 17 18
6 3 2 2 5 5 3 5 2 2 4 1 3 3 4 2 3 5 3 3 5 3 3 2 1 6 6 3 2 4 2 2 4 3 4 2 4 2 5 4 8 11 12 15 17
4 3 3 3 4 5 5 3 6 5 4 7 3 3 1 1 4 4 4 2 1 2 3 3 0 1 4 2 1 1 5 1 4 1 1 2 2 1 3 9 12 12 13 16 17
2 2 3 4 4 4 4 5 4 2 3 2 4 1 4 2 2 3 1 1 1 0 1 4 3 1 1 1 6 5 4 1 3 3 4 3 3 2 5 13 13 15 15 16 16
2 2 1 5 3 5 4 6 3 2 1 3 4 4 3 4 3 2 3 2 2 1 1 3 1 0 1 4 0 2 2 6 4 1 1 4 3 6 3 6 9 12 13 15 17
3 0 1 6 3 2 4 5 3 3 1 1 4 4 5 4 3 3 5 1 3 2 3 0 3 2 0 1 2 2 2 2 3 2 2 1 6 9 4 5 5 10 11 14 15
3 2 3 2 4 1 2 2 2 4 3 3 2 2 1 4 3 2 3 2 3 4 4 4 2 2 1 1 2 2 2 4 5 3 5 2 4 5 4 5 7 9 12 13 14
3 1 3 4 1 7 6 4 4 1 2 3 4 3 4 3 4 5 3 2 2 2 5 2 3 3 4 1 4 3 4 4 3 2 4 6 8 5 7 8 10 9 12 13 14
2 3 1 3 3 4 3 5 6 6 1 2 2 3 6 4 3 4 3 2 1 5 2 2 3 3 2 1 2 3 4 8 6 4 5 3 7 7 5 4 6 7 10 13 14
4 4 2 1 2 6 2 7 9 4 5 5 4 5 4 5 5 9 7 5 5 2 2 2 3 1 2 1 2 4 6 8 6 3 9 7 14 4 0 2 3 5 10 12 13
3 2 4 2 3 4 6 7 9 9 1 2 4 5 4 2 3 4 5 7 6 7 4 3 4 2 3 2 4 6 7 10 4 4 5 5 5 2 3 5 4 6 8 12 13
Wind_Direction
7 7 29 89 127 130 125 99 76 35 10 351 331 327 337 349 57 47 43 336 331 332 334 7 76 96 67 62 42 93 72 93 91 158 131 145 114 52 65 76 57 46 51 344 348
9 16 52 105 137 136 124 89 25 9 353 334 323 324 329 328 350 39 352 349 339 329 320 46 74 63 56 32 24 47 72 75 302 123 125 100 100 103 84 57 44 32 16 6 4
15 29 65 110 132 133 115 10 5 360 353 343 324 317 328 354 69 321 350 354 344 340 132 105 94 67 64 34 10 30 90 133 59 103 110 105 75 62 114 54 33 18 358 0 358
20 37 61 98 121 129 352 347 351 358 5 354 337 318 44 55 66 337 349 351 353 58 119 109 47 60 67 51 5 99 49 94 109 103 97 94 101 74 67 74 25 26 10 6 5
18 35 58 92 107 339 329 339 342 342 351 3 7 69 7 45 342 336 3 14 23 81 61 84 66 103 98 103 73 85 102 59 97 93 87 98 89 95 65 41 26 23 21 11 360
7 27 37 67 30 337 335 332 328 319 330 343 18 73 73 70 339 354 39 48 65 76 60 55 95 101 87 54 52 98 104 107 95 105 130 106 81 87 39 12 33 25 13 2 355
352 10 17 27 18 356 341 339 328 315 327 336 6 82 67 164 11 47 59 62 63 79 79 62 121 76 125 97 128 115 98 104 119 121 130 112 48 68 21 14 35 15 4 357 354
341 343 357 355 3 348 345 340 322 317 344 57 87 103 99 17 37 70 78 69 71 81 85 86 77 89 71 115 106 94 129 140 170 176 162 335 107 62 11 23 25 7 1 354 349
331 323 334 329 325 344 344 338 326 117 56 117 36 93 96 24 12 8 26 40 75 72 69 72 69 85 66 104 92 54 194 130 164 242 119 47 132 143 25 30 23 9 356 352 346
323 310 321 321 314 341 346 90 87 290 346 30 50 55 17 322 339 351 8 44 65 42 30 35 54 73 39 34 243 243 174 102 158 102 55 96 128 158 49 29 19 5 356 349 346
319 306 311 318 315 340 346 238 17 356 35 95 138 117 349 326 50 12 353 25 27 52 59 21 61 43 319 255 259 222 143 118 99 76 96 135 145 165 32 30 13 2 354 346 344
319 309 301 311 314 333 346 97 150 152 87 25 77 61 44 15 27 355 18 66 41 73 337 44 59 328 270 353 147 124 115 88 98 65 91 154 143 168 9 29 14 354 345 342 340
319 308 294 301 315 9 91 119 123 130 92 4 33 62 349 65 58 337 15 79 76 59 41 91 313 312 135 28 41 51 102 147 85 113 67 142 221 284 316 336 351 349 340 345 344
318 313 295 295 230 126 86 118 136 123 73 307 355 358 15 111 57 4 12 99 41 126 94 78 341 30 57 70 1 97 19 250 151 160 142 259 299 9 328 321 347 343 350 347 345
311 312 305 281 139 152 147 107 136 104 9 211 35 61 47 80 144 7 20 36 72 58 139 216 12 12 48 8 345 247 336 114 135 107 134 196 271 134 338 331 344 339 342 344 346
309 311 286 211 137 145 156 149 122 49 251 133 51 13 62 24 33 308 27 39 143 69 40 103 99 60 294 308 56 310 116 67 70 88 280 136 235 157 22 326 326 332 341 344 344
307 303 262 195 158 160 157 66 49 151 29 191 121 74 76 21 37 35 38 21 52 88 21 20 19 344 29 1 33 35 60 341 348 344 284 113 221 332 182 336 320 327 335 338 342
308 259 215 190 145 157 116 54 205 197 197 125 115 83 90 5 30 31 84 58 40 47 89 73 22 14 347 66 269 24 52 99 283 311 303 282 238 53 173 303 317 320 327 341 345
298 208 168 200 152 157 78 96 213 199 167 147 91 100 65 107 118 89 51 120 247 15 116 128 41 70 58 57 331 40 52 180 104 88 287 265 274 137 262 336 334 341 346 345 344
256 195 159 178 150 130 83 226 207 184 137 157 141 143 158 176 107 85 177 225 194 77 232 185 109 53 79 147 53 75 145 95 33 27 310 289 280 221 338 327 335 342 345 344 344
227 75 167 158 149 57 171 214 191 214 208 154 157 122 128 147 109 119 164 239 207 148 145 153 82 196 34 27 18 16 62 62 107 53 208 313 291 180 177 309 316 334 334 340 342
130 91 64 164 61 355 159 174 151 166 153 117 102 106 145 149 119 134 173 209 167 180 158 190 123 113 246 49 80 81 135 122 119 218 62 106 277 169 168 301 308 326 337 341 345
141 200 40 153 150 218 245 109 155 143 182 152 120 103 85 136 116 138 147 139 162 162 166 183 43 45 256 253 359 204 130 99 95 89 192 166 273 190 251 318 354 341 342 341 344
106 126 341 53 35 140 151 178 169 251 142 109 128 102 113 101 26 156 135 199 160 162 105 89 112 172 206 186 121 157 184 160 123 139 170 232 289 261 315 349 329 342 341 338 344
48 230 203 200 240 150 133 136 139 175 170 177 88 201 156 122 105 141 129 126 41 166 72 117 164 190 227 198 180 199 176 180 183 172 188 254 234 283 292 303 308 322 334 344 348
148 145 11 105 88 112 137 212 163 163 144 216 206 153 152 153 185 187 142 194 184 151 120 3 162 147 269 218 235 265 215 195 204 196 264 266 281 215 219 257 300 327 339 344 345
175 136 114 299 142 123 207 181 192 137 69 51 163 117 123 128 100 86 92 84 125 140 140 111 133 106 276 351 318 289 215 183 168 191 164 212 233 156 291 326 337 329 342 338 339